Weather History for Marfa, TX

Change the Weather History Date:

Tuesday, January 17, 2012

  Actual Average Record
Temperature  
Mean Temperature 48 °F -  
Max Temperature 64 °F 57 °F 73 °F (2000)
Min Temperature 33 °F 26 °F 15 °F (2006)
Degree Days  
Heating Degree Days 16    
Moisture  
Dew Point 26 °F    
Average Humidity 42    
Maximum Humidity 70    
Minimum Humidity 20    
Precipitation  
Precipitation 0.00 in - - ()
Sea Level Pressure  
Sea Level Pressure 30.20 in    
Wind  
Wind Speed 9 mph (West)    
Max Wind Speed 14 mph    
Max Gust Speed 18 mph    
Visibility 10 miles    
Events      
Averages and records for this station are not official NWS values.
T = Trace of Precipitation, MM = Missing Value Source: NWS Daily Summary

Daily Weather History Graph

Daily Weather History Graph

Search for Another Location

Airport:

Trip Planner

Search our weather history database for the weather conditions in past years. The results will help you decide how hot, cold, wet, or windy it might be!

Date:

Astronomy

Jan. 17, 2012 Rise Set
Actual Time 7:53 AM CST 6:19 PM CST
Civil Twilight 7:27 AM CST 6:45 PM CST
Nautical Twilight 6:57 AM CST 7:14 PM CST
Astronomical Twilight 6:29 AM CST 7:43 PM CST
Moon 2:18 AM CST (1/17) 1:13 PM CST (1/17)
Length of Visible Light 11h 17m
Length of Day
10h 26m
Waning Crescent, 35% of the Moon is Illuminated
Jan 17
Waning Crescent
Jan 23
New
Jan 30
First Quarter
Feb 7
Full
Feb 14
Last Quarter

Hourly Weather History & Observations

Time (CST) Temp. Windchill Dew Point Humidity Pressure Visibility Wind Dir Wind Speed Gust Speed Precip Events Conditions
12:15 AM 51.8 °F - 26.6 °F 38% 30.13 in 10.0 mi WNW 8.1 mph - N/A   Clear
12:35 AM 44.6 °F 39.2 °F 23.0 °F 43% 30.13 in 10.0 mi NW 10.4 mph - N/A   Clear
12:55 AM 44.6 °F 39.7 °F 24.8 °F 46% 30.13 in 10.0 mi NW 9.2 mph - N/A   Clear
1:15 AM 44.6 °F 40.2 °F 24.8 °F 46% 30.13 in 10.0 mi WNW 8.1 mph - N/A   Clear
1:35 AM 42.8 °F 38.0 °F 24.8 °F 49% 30.12 in 10.0 mi WNW 8.1 mph - N/A   Clear
1:55 AM 42.8 °F 38.0 °F 24.8 °F 49% 30.13 in 10.0 mi WNW 8.1 mph - N/A   Clear
2:15 AM 42.8 °F 39.3 °F 24.8 °F 49% 30.13 in 10.0 mi West 5.8 mph - N/A   Clear
2:35 AM 41.0 °F 35.2 °F 24.8 °F 53% 30.12 in 10.0 mi West 9.2 mph - N/A   Clear
2:55 AM 44.6 °F 38.4 °F 26.6 °F 49% 30.13 in 10.0 mi West 12.7 mph - N/A   Clear
3:15 AM 42.8 °F 36.2 °F 26.6 °F 53% 30.13 in 10.0 mi West 12.7 mph - N/A   Clear
3:35 AM 44.6 °F 38.1 °F 26.6 °F 49% 30.13 in 10.0 mi West 13.8 mph - N/A   Clear
4:15 AM 42.8 °F 36.6 °F 26.6 °F 53% 30.13 in 10.0 mi West 11.5 mph - N/A   Clear
4:35 AM 41.0 °F 35.2 °F 24.8 °F 53% 30.13 in 10.0 mi West 9.2 mph - N/A   Clear
4:55 AM 39.2 °F 32.0 °F 26.6 °F 61% 30.13 in 10.0 mi West 11.5 mph - N/A   Clear
5:15 AM 39.2 °F 32.0 °F 26.6 °F 61% 30.14 in 10.0 mi West 11.5 mph - N/A   Clear
5:35 AM 39.2 °F 32.5 °F 26.6 °F 61% 30.14 in 10.0 mi West 10.4 mph - N/A   Clear
5:55 AM 39.2 °F 32.0 °F 26.6 °F 61% 30.15 in 10.0 mi West 11.5 mph - N/A   Clear
6:15 AM 39.2 °F 32.5 °F 26.6 °F 61% 30.15 in 10.0 mi WNW 10.4 mph - N/A   Clear
6:35 AM 39.2 °F 33.0 °F 26.6 °F 61% 30.16 in 10.0 mi WNW 9.2 mph - N/A   Clear
6:55 AM 35.6 °F 29.9 °F 24.8 °F 65% 30.18 in 10.0 mi WNW 6.9 mph - N/A   Clear
7:15 AM 35.6 °F - 26.6 °F 70% 30.18 in 10.0 mi Calm Calm - N/A   Clear
7:35 AM 37.4 °F 34.9 °F 28.4 °F 70% 30.19 in 10.0 mi NW 3.5 mph - N/A   Clear
7:55 AM 33.8 °F - 24.8 °F 70% 30.20 in 10.0 mi Calm Calm - N/A   Clear
8:15 AM 33.8 °F 27.0 °F 24.8 °F 70% 30.21 in 10.0 mi NNW 8.1 mph - N/A   Clear
8:35 AM 37.4 °F 34.9 °F 28.4 °F 70% 30.22 in 10.0 mi NNE 3.5 mph - N/A   Clear
8:55 AM 41.0 °F - 28.4 °F 61% 30.23 in 10.0 mi Calm Calm - N/A   Clear
9:15 AM 44.6 °F - 30.2 °F 57% 30.24 in 10.0 mi Calm Calm - N/A   Clear
9:35 AM 50.0 °F - 32.0 °F 50% 30.25 in 10.0 mi NW 4.6 mph - N/A   Clear
9:55 AM 53.6 °F - 33.8 °F 47% 30.26 in 10.0 mi NW 8.1 mph - N/A   Clear
10:15 AM 55.4 °F - 33.8 °F 44% 30.26 in 10.0 mi NW 8.1 mph - N/A   Clear
10:35 AM 57.2 °F - 33.8 °F 41% 30.26 in 10.0 mi NW 8.1 mph - N/A   Clear
10:55 AM 59.0 °F - 32.0 °F 36% 30.27 in 10.0 mi WNW 9.2 mph - N/A   Clear
11:15 AM 59.0 °F - 32.0 °F 36% 30.28 in 10.0 mi West 9.2 mph - N/A   Clear
11:35 AM 60.8 °F - 30.2 °F 31% 30.27 in 10.0 mi West 9.2 mph - N/A   Clear
11:55 AM 62.6 °F - 30.2 °F 30% 30.27 in 10.0 mi WNW 13.8 mph - N/A   Clear
12:15 PM 62.6 °F - 30.2 °F 30% 30.26 in 10.0 mi West 6.9 mph - N/A   Clear
12:35 PM 62.6 °F - 30.2 °F 30% 30.25 in 10.0 mi WNW 11.5 mph - N/A   Clear
12:55 PM 62.6 °F - 28.4 °F 27% 30.25 in 10.0 mi West 12.7 mph 17.3 mph N/A   Clear
1:15 PM 62.6 °F - 28.4 °F 27% 30.23 in 10.0 mi West 10.4 mph 16.1 mph N/A   Clear
2:15 PM 64.4 °F - 24.8 °F 22% 30.21 in 10.0 mi WSW 10.4 mph 18.4 mph N/A   Clear
2:35 PM 64.4 °F - 24.8 °F 22% 30.21 in 10.0 mi SW 12.7 mph 18.4 mph N/A   Clear
2:55 PM 62.6 °F - 26.6 °F 26% 30.21 in 10.0 mi WSW 9.2 mph - N/A   Clear
3:15 PM 64.4 °F - 24.8 °F 22% 30.21 in 10.0 mi SSW 10.4 mph - N/A   Clear
3:35 PM 64.4 °F - 24.8 °F 22% 30.21 in 10.0 mi South 5.8 mph - N/A   Clear
3:55 PM 62.6 °F - 24.8 °F 24% 30.20 in 10.0 mi SSW 3.5 mph - N/A   Clear
4:15 PM 62.6 °F - 24.8 °F 24% 30.21 in 10.0 mi SSW 3.5 mph - N/A   Clear
4:35 PM 64.4 °F - 24.8 °F 22% 30.21 in 10.0 mi SW 11.5 mph - N/A   Clear
4:55 PM 62.6 °F - 26.6 °F 26% 30.22 in 10.0 mi WSW 5.8 mph - N/A   Clear
5:15 PM 62.6 °F - 26.6 °F 26% 30.22 in 10.0 mi WSW 9.2 mph - N/A   Clear
5:35 PM 62.6 °F - 21.2 °F 20% 30.22 in 10.0 mi West 13.8 mph 18.4 mph N/A   Clear
5:55 PM 60.8 °F - 21.2 °F 22% 30.22 in 10.0 mi WSW 12.7 mph - N/A   Clear
6:15 PM 57.2 °F - 21.2 °F 25% 30.23 in 10.0 mi West 9.2 mph - N/A   Clear
6:35 PM 53.6 °F - 21.2 °F 28% 30.24 in 10.0 mi WNW 10.4 mph - N/A   Clear
6:55 PM 51.8 °F - 21.2 °F 30% 30.24 in 10.0 mi WNW 8.1 mph - N/A   Clear
7:15 PM 46.4 °F 42.4 °F 19.4 °F 34% 30.25 in 10.0 mi NW 8.1 mph - N/A   Clear
7:35 PM 44.6 °F 39.2 °F 17.6 °F 34% 30.25 in 10.0 mi NNW 10.4 mph - N/A   Clear
7:55 PM 44.6 °F 38.8 °F 19.4 °F 37% 30.25 in 10.0 mi NNW 11.5 mph - N/A   Clear
8:15 PM 44.6 °F 39.2 °F 19.4 °F 37% 30.26 in 10.0 mi NNW 10.4 mph - N/A   Clear
8:35 PM 42.8 °F 38.6 °F 19.4 °F 39% 30.26 in 10.0 mi NW 6.9 mph - N/A   Clear
8:55 PM 39.2 °F 33.0 °F 19.4 °F 45% 30.26 in 10.0 mi NNW 9.2 mph - N/A   Clear
9:35 PM 39.2 °F 35.0 °F 17.6 °F 42% 30.27 in 10.0 mi NNW 5.8 mph - N/A   Clear
9:55 PM 37.4 °F 33.8 °F 17.6 °F 45% 30.26 in 10.0 mi NNW 4.6 mph - N/A   Clear
10:15 PM 35.6 °F 30.7 °F 17.6 °F 48% 30.27 in 10.0 mi North 5.8 mph - N/A   Clear
10:35 PM 35.6 °F 32.8 °F 17.6 °F 48% 30.27 in 10.0 mi NNW 3.5 mph - N/A   Clear
10:55 PM 37.4 °F 33.8 °F 17.6 °F 45% 30.27 in 10.0 mi NNW 4.6 mph - N/A   Clear
11:15 PM 37.4 °F 30.3 °F 19.4 °F 48% 30.27 in 10.0 mi NNW 10.4 mph - N/A   Clear
11:35 PM 37.4 °F 29.8 °F 19.4 °F 48% 30.27 in 10.0 mi NNW 11.5 mph - N/A   Clear
11:55 PM 39.2 °F 33.0 °F 21.2 °F 49% 30.27 in 10.0 mi NNW 9.2 mph - N/A   Clear